| time (UTC) | temp C | wind direction | speed KPH | gust KPH | rain 1hr cm | rain 24hr cm | rain mn cm | humidity % | barometer mb |
| 20260901012033 | -17 | 132 | 1.6 | 4.8 | 0.00 | 0.00 | 0.00 | 1018.9 | |
| 20260901011535 | -17 | 117 | 0.0 | 4.8 | 0.00 | 0.00 | 0.00 | 1018.9 | |
| 20260901011033 | -17 | 126 | 1.6 | 3.2 | 0.00 | 0.00 | 0.00 | 1018.8 | |
| 20260901010533 | -17 | 118 | 0.0 | 3.2 | 0.00 | 0.00 | 0.00 | 1018.7 | |
| 20260901010036 | -17 | 97 | 0.0 | 3.2 | 0.00 | 0.00 | 0.00 | 1018.7 | |
| 20260901005532 | -17 | 107 | 0.0 | 3.2 | 0.00 | 0.00 | 0.00 | 1018.7 | |
| 20260901005032 | -17 | 109 | 0.0 | 3.2 | 0.00 | 0.00 | 0.00 | 1018.9 | |
| 20260901004532 | -17 | 109 | 0.0 | 3.2 | 0.00 | 0.00 | 0.00 | 1018.9 | |
| 20260901004032 | -17 | 126 | 1.6 | 3.2 | 0.00 | 0.00 | 0.00 | 1018.9 | |
| 20260901003532 | -17 | 125 | 1.6 | 3.2 | 0.00 | 0.00 | 0.00 | 1018.8 | |
| 20260901003036 | -17 | 120 | 0.0 | 1.6 | 0.00 | 0.00 | 0.00 | 1018.8 | |
| 20260901002532 | -17 | 126 | 0.0 | 3.2 | 0.00 | 0.00 | 0.00 | 1018.8 | |
| 20260901002031 | -17 | 120 | 0.0 | 3.2 | 0.00 | 0.00 | 0.00 | 1018.8 | |
| 20260901001541 | -17 | 117 | 0.0 | 1.6 | 0.00 | 0.00 | 0.00 | 1018.7 | |
| 20260901001030 | -17 | 136 | 0.0 | 3.2 | 0.00 | 0.00 | 0.00 | 1018.6 | |
| 20260901000531 | -17 | 105 | 0.0 | 4.8 | 0.00 | 0.00 | 0.00 | 1018.5 | |
| 20260901000031 | -17 | 99 | 0.0 | 4.8 | 0.00 | 0.00 | 0.00 | 1018.4 | |
| 20260831235534 | -17 | 126 | 0.0 | 1.6 | 0.00 | 0.00 | 0.00 | 1018.4 | |
| 20260831235030 | -17 | 108 | 0.0 | 1.6 | 0.00 | 0.00 | 0.00 | 1018.3 | |
| 20260831234531 | -17 | 111 | 0.0 | 1.6 | 0.00 | 0.00 | 0.00 | 1018.3 | |
| 20260831234030 | -17 | 112 | 0.0 | 3.2 | 0.00 | 0.00 | 0.00 | 1018.4 | |
| 20260831233530 | -17 | 82 | 0.0 | 3.2 | 0.00 | 0.00 | 0.00 | 1018.2 | |
| 20260831233030 | -17 | 101 | 0.0 | 1.6 | 0.00 | 0.00 | 0.00 | 1018.3 | |
| 20260831232530 | -17 | 111 | 0.0 | 1.6 | 0.00 | 0.00 | 0.00 | 1018.3 | |
| 20260831232029 | -17 | 109 | 0.0 | 1.6 | 0.00 | 0.00 | 0.00 | 1018.3 | |
| 20260831231529 | -17 | 113 | 0.0 | 1.6 | 0.00 | 0.00 | 0.00 | 1018.2 | |
| 20260831231029 | -17 | 113 | 0.0 | 1.6 | 0.00 | 0.00 | 0.00 | 1018.2 | |
| 20260831230533 | -17 | 102 | 0.0 | 1.6 | 0.00 | 0.00 | 0.00 | 1018.1 | |
| 20260831230029 | -17 | 94 | 0.0 | 1.6 | 0.00 | 0.00 | 0.00 | 1018.0 | |
| 20260831225533 | -17 | 109 | 0.0 | 1.6 | 0.00 | 0.00 | 0.00 | 1018.0 | |
| 20260831225029 | -17 | 45 | 0.0 | 1.6 | 0.00 | 0.00 | 0.00 | 1017.9 | |
| 20260831224528 | -17 | 88 | 0.0 | 1.6 | 0.00 | 0.00 | 0.00 | 1017.9 | |
| 20260831224028 | -17 | 110 | 0.0 | 3.2 | 0.00 | 0.00 | 0.00 | 1017.9 | |
| 20260831223529 | -17 | 133 | 0.0 | 3.2 | 0.00 | 0.00 | 0.00 | 1018.0 | |
| 20260831223027 | -17 | 45 | 0.0 | 3.2 | 0.00 | 0.00 | 0.00 | 1017.9 | |
| 20260831222527 | -17 | 92 | 0.0 | 3.2 | 0.00 | 0.00 | 0.00 | 1018.1 | |
| 20260831222026 | -17 | 115 | 0.0 | 1.6 | 0.00 | 0.00 | 0.00 | 1018.1 | |
| 20260831221534 | -17 | 109 | 0.0 | 3.2 | 0.00 | 0.00 | 0.00 | 1018.2 | |
| 20260831221026 | -17 | 55 | 1.6 | 4.8 | 0.00 | 0.00 | 0.00 | 1018.1 | |
| 20260831220526 | -17 | 53 | 0.0 | 4.8 | 0.00 | 0.00 | 0.00 | 1018.0 | |
| 20260831220026 | -17 | 17 | 0.0 | 3.2 | 0.00 | 0.00 | 0.00 | 1018.1 | |
| 20260831215524 | -17 | 360 | 0.0 | 3.2 | 0.00 | 0.00 | 0.00 | 1017.9 | |
| 20260831215026 | -17 | 130 | 0.0 | 3.2 | 0.00 | 0.00 | 0.00 | 1017.9 | |
| 20260831214522 | -17 | 101 | 0.0 | 3.2 | 0.00 | 0.00 | 0.00 | 1017.9 | |
| 20260831214020 | -17 | 31 | 0.0 | 4.8 | 0.00 | 0.00 | 0.00 | 1017.9 | |
| 20260831213519 | -17 | 117 | 0.0 | 4.8 | 0.00 | 0.00 | 0.00 | 1017.9 | |
| 20260831213019 | -17 | 13 | 1.6 | 3.2 | 0.00 | 0.00 | 0.00 | 1017.9 | |
| 20260831212519 | -17 | 95 | 0.0 | 3.2 | 0.00 | 0.00 | 0.00 | 1018.0 | |
| 20260831212019 | -17 | 147 | 0.0 | 3.2 | 0.00 | 0.00 | 0.00 | 1018.1 | |
| 20260831211518 | -17 | 139 | 0.0 | 3.2 | 0.00 | 0.00 | 0.00 | 1018.1 | |
| 20260831211015 | -17 | 139 | 0.0 | 3.2 | 0.00 | 0.00 | 0.00 | 1018.0 | |
| 20260831210514 | -17 | 113 | 0.0 | 3.2 | 0.00 | 0.00 | 0.00 | 1018.1 | |
| 20260831210013 | -17 | 74 | 0.0 | 3.2 | 0.00 | 0.00 | 0.00 | 1017.9 | |
| 20260831205511 | -17 | 65 | 0.0 | 3.2 | 0.00 | 0.00 | 0.00 | 1018.1 | |
| 20260831205009 | -17 | 50 | 0.0 | 3.2 | 0.00 | 0.00 | 0.00 | 1018.0 | |
| 20260831204510 | -17 | 14 | 0.0 | 3.2 | 0.00 | 0.00 | 0.00 | 1017.9 | |
| 20260831204007 | -17 | 360 | 0.0 | 4.8 | 0.00 | 0.00 | 0.00 | 1018.1 | |
| 20260831203505 | -17 | 107 | 1.6 | 4.8 | 0.00 | 0.00 | 0.00 | 1018.0 | |
| 20260831203007 | -17 | 342 | 0.0 | 3.2 | 0.00 | 0.00 | 0.00 | 1018.1 | |
| 20260831202502 | -17 | 169 | 0.0 | 3.2 | 0.00 | 0.00 | 0.00 | 1018.0 | |
| 20260831202002 | -17 | 22 | 0.0 | 3.2 | 0.00 | 0.00 | 0.00 | 1018.0 | |
| 20260831201600 | -17 | 114 | 0.0 | 3.2 | 0.00 | 0.00 | 0.00 | 1018.2 | |
| 20260831201058 | -17 | 190 | 1.6 | 3.2 | 0.00 | 0.00 | 0.00 | 1018.1 | |
| 20260831200557 | -17 | 91 | 0.0 | 3.2 | 0.00 | 0.00 | 0.00 | 1018.1 | |
| 20260831200058 | -17 | 132 | 0.0 | 4.8 | 0.00 | 0.00 | 0.00 | 1018.2 | |
| 20260831195553 | -17 | 36 | 1.6 | 4.8 | 0.00 | 0.00 | 0.00 | 1018.2 | |
| 20260831195052 | -17 | 24 | 1.6 | 3.2 | 0.00 | 0.00 | 0.00 | 1018.2 | |
| 20260831194612 | -17 | 132 | 1.6 | 4.8 | 0.00 | 0.00 | 0.00 | 1018.2 | |
| 20260831194050 | -17 | 355 | 1.6 | 4.8 | 0.00 | 0.00 | 0.00 | 1018.3 | |
| 20260831193547 | -17 | 153 | 1.6 | 4.8 | 0.00 | 0.00 | 0.00 | 1018.2 | |
| 20260831193052 | -17 | 115 | 0.0 | 3.2 | 0.00 | 0.00 | 0.00 | 1018.3 | |
| 20260831192545 | -17 | 111 | 0.0 | 4.8 | 0.00 | 0.00 | 0.00 | 1018.3 | |
| 20260831192044 | -17 | 351 | 0.0 | 4.8 | 0.00 | 0.00 | 0.00 | 1018.4 | |
| 20260831191542 | -17 | 5 | 0.0 | 3.2 | 0.00 | 0.00 | 0.00 | 1018.4 | |
| 20260831191044 | -17 | 186 | 0.0 | 4.8 | 0.00 | 0.00 | 0.00 | 1018.4 | |
| 20260831190541 | -17 | 36 | 1.6 | 4.8 | 0.00 | 0.00 | 0.00 | 1018.4 | |
| 20260831190104 | -17 | 101 | 1.6 | 4.8 | 0.00 | 0.00 | 0.00 | 1018.5 | |
| 20260831185538 | -17 | 24 | 1.6 | 4.8 | 0.00 | 0.00 | 0.00 | 1018.6 | |
| 20260831185036 | -17 | 94 | 0.0 | 3.2 | 0.00 | 0.00 | 0.00 | 1018.6 | |
| 20260831184534 | -17 | 342 | 1.6 | 4.8 | 0.00 | 0.00 | 0.00 | 1018.7 | |
| 20260831184035 | -17 | 44 | 1.6 | 4.8 | 0.00 | 0.00 | 0.00 | 1018.6 | |
| 20260831183530 | -17 | 169 | 0.0 | 3.2 | 0.00 | 0.00 | 0.00 | 1018.7 | |
| 20260831183031 | -17 | 5 | 0.0 | 3.2 | 0.00 | 0.00 | 0.00 | 1018.7 | |
| 20260831182528 | -17 | 355 | 1.6 | 3.2 | 0.00 | 0.00 | 0.00 | 1018.8 | |
| 20260831182027 | -17 | 110 | 0.0 | 4.8 | 0.00 | 0.00 | 0.00 | 1018.9 | |
| 20260831181527 | -17 | 332 | 1.6 | 6.4 | 0.00 | 0.00 | 0.00 | 1018.9 | |
| 20260831181023 | -17 | 69 | 3.2 | 6.4 | 0.00 | 0.00 | 0.00 | 1019.0 | |
| 20260831180521 | -17 | 78 | 0.0 | 4.8 | 0.00 | 0.00 | 0.00 | 1019.1 | |
| 20260831180021 | -17 | 100 | 0.0 | 4.8 | 0.00 | 0.00 | 0.00 | 1019.1 | |
| 20260831175518 | -17 | 76 | 1.6 | 3.2 | 0.00 | 0.00 | 0.00 | 1019.2 | |
| 20260831175018 | -17 | 360 | 1.6 | 4.8 | 0.00 | 0.00 | 0.00 | 1019.3 | |
| 20260831174516 | -17 | 71 | 1.6 | 4.8 | 0.00 | 0.00 | 0.00 | 1019.3 | |
| 20260831174015 | -17 | 53 | 0.0 | 3.2 | 0.00 | 0.00 | 0.00 | 1019.3 | |
| 20260831173516 | -17 | 26 | 1.6 | 4.8 | 0.00 | 0.00 | 0.00 | 1019.4 | |
| 20260831173012 | -17 | 94 | 0.0 | 3.2 | 0.00 | 0.00 | 0.00 | 1019.4 | |
| 20260831172510 | -17 | 111 | 0.0 | 3.2 | 0.00 | 0.00 | 0.00 | 1019.4 | |
| 20260831172009 | -17 | 143 | 0.0 | 4.8 | 0.00 | 0.00 | 0.00 | 1019.4 | |
| 20260831171508 | -17 | 123 | 1.6 | 4.8 | 0.00 | 0.00 | 0.00 | 1019.4 | |
| 20260831171006 | -17 | 129 | 0.0 | 4.8 | 0.00 | 0.00 | 0.00 | 1019.4 | |
| 20260831170505 | -17 | 109 | 1.6 | 4.8 | 0.00 | 0.00 | 0.00 | 1019.4 | |
| 20260831170006 | -17 | 342 | 0.0 | 4.8 | 0.00 | 0.00 | 0.00 | 1019.4 | |
| 20260831165504 | -17 | 36 | 1.6 | 4.8 | 0.00 | 0.00 | 0.00 | 1019.4 | |
| 20260831165059 | -17 | 78 | 0.0 | 3.2 | 0.00 | 0.00 | 0.00 | 1019.6 | |
| 20260831164559 | -17 | 360 | 0.0 | 4.8 | 0.00 | 0.00 | 0.00 | 1019.6 | |
| 20260831164100 | -17 | 123 | 1.6 | 4.8 | 0.00 | 0.00 | 0.00 | 1019.6 | |
| 20260831163555 | -17 | 355 | 0.0 | 3.2 | 0.00 | 0.00 | 0.00 | 1019.8 | |
| 20260831163054 | -17 | 119 | 0.0 | 4.8 | 0.00 | 0.00 | 0.00 | 1019.7 | |
| 20260831162556 | -17 | 120 | 0.0 | 4.8 | 0.00 | 0.00 | 0.00 | 1019.8 | |
| 20260831162051 | -17 | 157 | 0.0 | 3.2 | 0.00 | 0.00 | 0.00 | 1019.9 | |
| 20260831161550 | -17 | 67 | 0.0 | 3.2 | 0.00 | 0.00 | 0.00 | 1019.8 | |
| 20260831161048 | -17 | 119 | 1.6 | 3.2 | 0.00 | 0.00 | 0.00 | 1019.9 | |
| 20260831160546 | -17 | 146 | 0.0 | 3.2 | 0.00 | 0.00 | 0.00 | 1019.9 | |
| 20260831160045 | -17 | 144 | 0.0 | 3.2 | 0.00 | 0.00 | 0.00 | 1019.8 | |
| 20260831155545 | -17 | 126 | 0.0 | 3.2 | 0.00 | 0.00 | 0.00 | 1019.9 | |
| 20260831155042 | -17 | 126 | 0.0 | 3.2 | 0.00 | 0.00 | 0.00 | 1020.1 | |
| 20260831154544 | -17 | 118 | 0.0 | 3.2 | 0.00 | 0.00 | 0.00 | 1020.1 | |
| 20260831154039 | -17 | 114 | 0.0 | 3.2 | 0.00 | 0.00 | 0.00 | 1020.2 | |
| 20260831153541 | -17 | 114 | 0.0 | 4.8 | 0.00 | 0.00 | 0.00 | 1020.1 | |
| 20260831153045 | -17 | 113 | 0.0 | 4.8 | 0.00 | 0.00 | 0.00 | 1020.1 | |
| 20260831152535 | -17 | 140 | 0.0 | 1.6 | 0.00 | 0.00 | 0.00 | 1020.1 | |
| 20260831152033 | -17 | 123 | 0.0 | 3.2 | 0.00 | 0.00 | 0.00 | 1020.1 | |
| 20260831151540 | -17 | 123 | 0.0 | 3.2 | 0.00 | 0.00 | 0.00 | 1020.1 | |
| 20260831151030 | -17 | 144 | 0.0 | 3.2 | 0.00 | 0.00 | 0.00 | 1020.1 | |
| 20260831150530 | -17 | 141 | 0.0 | 3.2 | 0.00 | 0.00 | 0.00 | 1020.1 | |
| 20260831150028 | -17 | 140 | 0.0 | 3.2 | 0.00 | 0.00 | 0.00 | 1020.1 | |
| 20260831145526 | -17 | 141 | 0.0 | 3.2 | 0.00 | 0.00 | 0.00 | 1020.1 | |
| 20260831145027 | -17 | 149 | 0.0 | 3.2 | 0.00 | 0.00 | 0.00 | 1020.3 | |
| 20260831144522 | -17 | 122 | 0.0 | 1.6 | 0.00 | 0.00 | 0.00 | 1020.3 | |
| 20260831144022 | -17 | 121 | 0.0 | 0.0 | 0.00 | 0.00 | 0.00 | 1020.1 | |
| 20260831143521 | -17 | 121 | 0.0 | 1.6 | 0.00 | 0.00 | 0.00 | 1020.3 | |
| 20260831143019 | -17 | 121 | 0.0 | 1.6 | 0.00 | 0.00 | 0.00 | 1020.1 | |
| 20260831142517 | -17 | 119 | 0.0 | 1.6 | 0.00 | 0.00 | 0.00 | 1020.2 | |
| 20260831142016 | -17 | 65 | 0.0 | 3.2 | 0.00 | 0.00 | 0.00 | 1020.1 | |
| 20260831141514 | -17 | 43 | 0.0 | 3.2 | 0.00 | 0.00 | 0.00 | 1020.2 | |
| 20260831141014 | -17 | 37 | 0.0 | 3.2 | 0.00 | 0.00 | 0.00 | 1020.1 | |
| 20260831140511 | -17 | 43 | 0.0 | 3.2 | 0.00 | 0.00 | 0.00 | 1020.3 | |
| 20260831140010 | -17 | 35 | 0.0 | 4.8 | 0.00 | 0.00 | 0.00 | 1020.3 | |
| 20260831135509 | -17 | 360 | 1.6 | 4.8 | 0.00 | 0.00 | 0.00 | 1020.2 | |
| 20260831135008 | -17 | 120 | 0.0 | 3.2 | 0.00 | 0.00 | 0.00 | 1020.0 | |
| 20260831134516 | -17 | 140 | 0.0 | 0.0 | 0.00 | 0.00 | 0.00 | 1019.9 | |
| 20260831134005 | -17 | 140 | 0.0 | 1.6 | 0.00 | 0.00 | 0.00 | 1020.0 | |
| 20260831133502 | -17 | 140 | 0.0 | 3.2 | 0.00 | 0.00 | 0.00 | 1019.9 | |
| 20260831133003 | -17 | 136 | 0.0 | 3.2 | 0.00 | 0.00 | 0.00 | 1020.0 | |
| 20260831132100 | -17 | 132 | 0.0 | 1.6 | 0.00 | 0.00 | 0.00 | 1019.9 | |
| 20260831131559 | -17 | 132 | 0.0 | 1.6 | 0.00 | 0.00 | 0.00 | 1019.9 | |
| 20260831131055 | -17 | 120 | 0.0 | 1.6 | 0.00 | 0.00 | 0.00 | 1020.0 | |
| 20260831130554 | -17 | 121 | 0.0 | 1.6 | 0.00 | 0.00 | 0.00 | 1020.1 | |
| 20260831130054 | -17 | 121 | 0.0 | 1.6 | 0.00 | 0.00 | 0.00 | 1020.0 | |
| 20260831125551 | -17 | 136 | 0.0 | 1.6 | 0.00 | 0.00 | 0.00 | 1020.0 | |
| 20260831125050 | -17 | 136 | 0.0 | 1.6 | 0.00 | 0.00 | 0.00 | 1020.0 | |
| 20260831124549 | -17 | 136 | 0.0 | 1.6 | 0.00 | 0.00 | 0.00 | 1020.0 | |
| 20260831124052 | -17 | 136 | 0.0 | 1.6 | 0.00 | 0.00 | 0.00 | 1020.0 | |
| 20260831123549 | -17 | 136 | 0.0 | 1.6 | 0.00 | 0.00 | 0.00 | 1019.9 | |
| 20260831123043 | -17 | 136 | 0.0 | 3.2 | 0.00 | 0.00 | 0.00 | 1020.0 | |
| 20260831122544 | -17 | 138 | 0.0 | 3.2 | 0.00 | 0.00 | 0.00 | 1020.0 | |
| 20260831122041 | -17 | 136 | 0.0 | 3.2 | 0.00 | 0.00 | 0.00 | 1019.9 | |
| 20260831121543 | -17 | 135 | 0.0 | 3.2 | 0.00 | 0.00 | 0.00 | 1019.9 | |
| 20260831121039 | -17 | 134 | 0.0 | 0.0 | 0.00 | 0.00 | 0.00 | 1019.9 | |
| 20260831120537 | -17 | 134 | 0.0 | 0.0 | 0.00 | 0.00 | 0.00 | 1019.9 | |
| 20260831120040 | -17 | 134 | 0.0 | 0.0 | 0.00 | 0.00 | 0.00 | 1019.9 | |
| 20260831115533 | -17 | 134 | 0.0 | 0.0 | 0.00 | 0.00 | 0.00 | 1019.9 | |
| 20260831115032 | -17 | 134 | 0.0 | 0.0 | 0.00 | 0.00 | 0.00 | 1019.8 | |
| 20260831114531 | -17 | 134 | 0.0 | 3.2 | 0.00 | 0.00 | 0.00 | 1019.9 | |
| 20260831114029 | -17 | 134 | 0.0 | 3.2 | 0.00 | 0.00 | 0.00 | 1019.8 | |
| 20260831113530 | -17 | 138 | 0.0 | 3.2 | 0.00 | 0.00 | 0.00 | 1019.8 | |
| 20260831113025 | -17 | 136 | 0.0 | 3.2 | 0.00 | 0.00 | 0.00 | 1019.7 | |
| 20260831112525 | -17 | 136 | 0.0 | 3.2 | 0.00 | 0.00 | 0.00 | 1019.7 | |
| 20260831112023 | -17 | 134 | 0.0 | 3.2 | 0.00 | 0.00 | 0.00 | 1019.6 | |
| 20260831111521 | -17 | 136 | 0.0 | 0.0 | 0.00 | 0.00 | 0.00 | 1019.5 | |
| 20260831111025 | -17 | 136 | 0.0 | 0.0 | 0.00 | 0.00 | 0.00 | 1019.6 | |
| 20260831110518 | -17 | 136 | 0.0 | 0.0 | 0.00 | 0.00 | 0.00 | 1019.5 | |
| 20260831110016 | -17 | 136 | 0.0 | 3.2 | 0.00 | 0.00 | 0.00 | 1019.4 | |
| 20260831105515 | -17 | 136 | 0.0 | 3.2 | 0.00 | 0.00 | 0.00 | 1019.5 | |
| 20260831105013 | -17 | 135 | 0.0 | 3.2 | 0.00 | 0.00 | 0.00 | 1019.5 | |
| 20260831104511 | -17 | 118 | 0.0 | 3.2 | 0.00 | 0.00 | 0.00 | 1019.5 | |
| 20260831104012 | -17 | 109 | 0.0 | 1.6 | 0.00 | 0.00 | 0.00 | 1019.4 | |
| 20260831103509 | -17 | 109 | 0.0 | 1.6 | 0.00 | 0.00 | 0.00 | 1019.5 | |
| 20260831103013 | -17 | 134 | 0.0 | 0.0 | 0.00 | 0.00 | 0.00 | 1019.4 | |
| 20260831102508 | -17 | 134 | 0.0 | 0.0 | 0.00 | 0.00 | 0.00 | 1019.3 | |
| 20260831102005 | -17 | 134 | 0.0 | 0.0 | 0.00 | 0.00 | 0.00 | 1019.2 | |
| 20260831101507 | -17 | 134 | 0.0 | 0.0 | 0.00 | 0.00 | 0.00 | 1019.2 | |
| 20260831101002 | -17 | 134 | 0.0 | 1.6 | 0.00 | 0.00 | 0.00 | 1019.3 | |
| 20260831100501 | -17 | 134 | 0.0 | 1.6 | 0.00 | 0.00 | 0.00 | 1019.2 | |
| 20260831100100 | -17 | 132 | 0.0 | 1.6 | 0.00 | 0.00 | 0.00 | 1019.1 | |
| 20260831095558 | -17 | 131 | 0.0 | 1.6 | 0.00 | 0.00 | 0.00 | 1019.1 | |
| 20260831095056 | -17 | 134 | 0.0 | 3.2 | 0.00 | 0.00 | 0.00 | 1019.1 | |
| 20260831094604 | -17 | 136 | 0.0 | 3.2 | 0.00 | 0.00 | 0.00 | 1019.1 | |
| 20260831094053 | -17 | 136 | 0.0 | 1.6 | 0.00 | 0.00 | 0.00 | 1019.1 | |
| 20260831093552 | -17 | 140 | 0.0 | 0.0 | 0.00 | 0.00 | 0.00 | 1019.2 | |
| 20260831093138 | -17 | 140 | 0.0 | 0.0 | 0.00 | 0.00 | 0.00 | 1019.2 | |
| 20260831092549 | -17 | 140 | 0.0 | 0.0 | 0.00 | 0.00 | 0.00 | 1019.1 | |
| 20260831092047 | -17 | 140 | 0.0 | 0.0 | 0.00 | 0.00 | 0.00 | 1019.1 | |
| 20260831091550 | -17 | 140 | 0.0 | 0.0 | 0.00 | 0.00 | 0.00 | 1019.0 | |
| 20260831091045 | -17 | 140 | 0.0 | 1.6 | 0.00 | 0.00 | 0.00 | 1019.1 | |
| 20260831090543 | -17 | 140 | 0.0 | 3.2 | 0.00 | 0.00 | 0.00 | 1019.2 | |
| 20260831090043 | -17 | 140 | 1.6 | 3.2 | 0.00 | 0.00 | 0.00 | 1019.1 | |
| 20260831085541 | -17 | 140 | 0.0 | 3.2 | 0.00 | 0.00 | 0.00 | 1019.1 | |
| 20260831085040 | -17 | 137 | 0.0 | 3.2 | 0.00 | 0.00 | 0.00 | 1019.0 | |
| 20260831084622 | -17 | 136 | 0.0 | 3.2 | 0.00 | 0.00 | 0.00 | 1019.1 | |
| 20260831084036 | -17 | 137 | 0.0 | 0.0 | 0.00 | 0.00 | 0.00 | 1019.2 | |
| 20260831083535 | -17 | 138 | 0.0 | 0.0 | 0.00 | 0.00 | 0.00 | 1019.1 | |
| 20260831083033 | -17 | 138 | 0.0 | 0.0 | 0.00 | 0.00 | 0.00 | 1019.0 | |
| 20260831082531 | -17 | 138 | 0.0 | 0.0 | 0.00 | 0.00 | 0.00 | 1019.1 | |
| 20260831082034 | -17 | 138 | 0.0 | 0.0 | 0.00 | 0.00 | 0.00 | 1019.1 | |
| 20260831081531 | -17 | 138 | 0.0 | 3.2 | 0.00 | 0.00 | 0.00 | 1019.1 | |
| 20260831081027 | -17 | 138 | 0.0 | 3.2 | 0.00 | 0.00 | 0.00 | 1019.1 | |
| 20260831080525 | -17 | 140 | 0.0 | 3.2 | 0.00 | 0.00 | 0.00 | 1019.1 | |
| 20260831080125 | -17 | 140 | 0.0 | 3.2 | 0.00 | 0.00 | 0.00 | 1019.0 | |
| 20260831075524 | -17 | 140 | 0.0 | 3.2 | 0.00 | 0.00 | 0.00 | 1019.1 | |
| 20260831075024 | -17 | 141 | 0.0 | 3.2 | 0.00 | 0.00 | 0.00 | 1019.2 | |
| 20260831074536 | -17 | 137 | 0.0 | 1.6 | 0.00 | 0.00 | 0.00 | 1019.1 | |
| 20260831074021 | -17 | 137 | 0.0 | 0.0 | 0.00 | 0.00 | 0.00 | 1019.2 | |
| 20260831073519 | -17 | 137 | 0.0 | 0.0 | 0.00 | 0.00 | 0.00 | 1019.2 | |
| 20260831073016 | -17 | 137 | 0.0 | 1.6 | 0.00 | 0.00 | 0.00 | 1019.2 | |
| 20260831072519 | -17 | 137 | 0.0 | 3.2 | 0.00 | 0.00 | 0.00 | 1019.1 | |
| 20260831072014 | -17 | 137 | 0.0 | 3.2 | 0.00 | 0.00 | 0.00 | 1019.1 | |
| 20260831071513 | -17 | 137 | 0.0 | 3.2 | 0.00 | 0.00 | 0.00 | 1019.2 | |
| 20260831071013 | -17 | 136 | 0.0 | 1.6 | 0.00 | 0.00 | 0.00 | 1019.3 | |
| 20260831070510 | -17 | 140 | 0.0 | 3.2 | 0.00 | 0.00 | 0.00 | 1019.3 | |
| 20260831070010 | -17 | 130 | 0.0 | 3.2 | 0.00 | 0.00 | 0.00 | 1019.3 | |
| 20260831065608 | -17 | 138 | 0.0 | 0.0 | 0.00 | 0.00 | 0.00 | 1019.2 | |
| 20260831065006 | -17 | 138 | 0.0 | 0.0 | 0.00 | 0.00 | 0.00 | 1019.2 | |
| 20260831064505 | -17 | 138 | 0.0 | 1.6 | 0.00 | 0.00 | 0.00 | 1019.3 | |
| 20260831064001 | -17 | 138 | 0.0 | 3.2 | 0.00 | 0.00 | 0.00 | 1019.3 | |
| 20260831063501 | -17 | 136 | 0.0 | 3.2 | 0.00 | 0.00 | 0.00 | 1019.2 | |
| 20260831063111 | -17 | 136 | 0.0 | 3.2 | 0.00 | 0.00 | 0.00 | 1019.2 | |
| 20260831062559 | -17 | 136 | 0.0 | 3.2 | 0.00 | 0.00 | 0.00 | 1019.3 | |
| 20260831062058 | -17 | 136 | 1.6 | 3.2 | 0.00 | 0.00 | 0.00 | 1019.3 | |
| 20260831061556 | -17 | 134 | 0.0 | 1.6 | 0.00 | 0.00 | 0.00 | 1019.3 | |
| 20260831061054 | -17 | 134 | 0.0 | 0.0 | 0.00 | 0.00 | 0.00 | 1019.4 | |
| 20260831060553 | -17 | 134 | 0.0 | 0.0 | 0.00 | 0.00 | 0.00 | 1019.5 | |
| 20260831060051 | -17 | 134 | 0.0 | 0.0 | 0.00 | 0.00 | 0.00 | 1019.5 | |
| 20260831055554 | -17 | 134 | 0.0 | 1.6 | 0.00 | 0.00 | 0.00 | 1019.6 | |
| 20260831055048 | -17 | 134 | 0.0 | 3.2 | 0.00 | 0.00 | 0.00 | 1019.6 | |
| 20260831054546 | -17 | 135 | 0.0 | 3.2 | 0.00 | 0.00 | 0.00 | 1019.6 | |
| 20260831054045 | -17 | 135 | 0.0 | 3.2 | 0.00 | 0.00 | 0.00 | 1019.6 | |
| 20260831053543 | -17 | 136 | 0.0 | 1.6 | 0.00 | 0.00 | 0.00 | 1019.7 | |
| 20260831053053 | -17 | 133 | 0.0 | 3.2 | 0.00 | 0.00 | 0.00 | 1019.7 | |
| 20260831052540 | -17 | 130 | 0.0 | 3.2 | 0.00 | 0.00 | 0.00 | 1019.6 | |
| 20260831052042 | -17 | 127 | 0.0 | 0.0 | 0.00 | 0.00 | 0.00 | 1019.7 | |
| 20260831051541 | -17 | 127 | 0.0 | 0.0 | 0.00 | 0.00 | 0.00 | 1019.7 | |
| 20260831051037 | -17 | 127 | 0.0 | 0.0 | 0.00 | 0.00 | 0.00 | 1019.7 | |
| 20260831050535 | -17 | 127 | 0.0 | 1.6 | 0.00 | 0.00 | 0.00 | 1019.8 | |
| 20260831050034 | -17 | 127 | 0.0 | 1.6 | 0.00 | 0.00 | 0.00 | 1019.9 | |
| 20260831045534 | -17 | 130 | 0.0 | 3.2 | 0.00 | 0.00 | 0.00 | 1019.9 | |
| 20260831045031 | -17 | 132 | 0.0 | 3.2 | 0.00 | 0.00 | 0.00 | 1020.0 | |
| 20260831044528 | -17 | 133 | 0.0 | 3.2 | 0.00 | 0.00 | 0.00 | 1020.0 | |
| 20260831044028 | -17 | 129 | 1.6 | 3.2 | 0.00 | 0.00 | 0.00 | 1019.9 | |
| 20260831043526 | -17 | 128 | 0.0 | 3.2 | 0.00 | 0.00 | 0.00 | 1019.9 | |
| 20260831043024 | -17 | 132 | 0.0 | 1.6 | 0.00 | 0.00 | 0.00 | 1020.0 | |
| 20260831042524 | -17 | 132 | 0.0 | 1.6 | 0.00 | 0.00 | 0.00 | 1020.0 | |
| 20260831042022 | -17 | 135 | 0.0 | 1.6 | 0.00 | 0.00 | 0.00 | 1020.0 | |
| 20260831041521 | -17 | 135 | 0.0 | 1.6 | 0.00 | 0.00 | 0.00 | 1020.0 | |
| 20260831041022 | -17 | 111 | 0.0 | 1.6 | 0.00 | 0.00 | 0.00 | 1019.9 | |
| 20260831040519 | -17 | 123 | 0.0 | 0.0 | 0.00 | 0.00 | 0.00 | 1019.8 | |
| 20260831040022 | -17 | 123 | 0.0 | 1.6 | 0.00 | 0.00 | 0.00 | 1019.9 | |
| 20260831035516 | -17 | 123 | 0.0 | 3.2 | 0.00 | 0.00 | 0.00 | 1019.9 | |
| 20260831035015 | -17 | 128 | 1.6 | 3.2 | 0.00 | 0.00 | 0.00 | 1020.0 | |
| 20260831034515 | -17 | 111 | 0.0 | 3.2 | 0.00 | 0.00 | 0.00 | 1020.0 | |
| 20260831034014 | -17 | 126 | 1.6 | 3.2 | 0.00 | 0.00 | 0.00 | 1020.0 | |
| 20260831033515 | -17 | 120 | 0.0 | 1.6 | 0.00 | 0.00 | 0.00 | 1020.1 | |
| 20260831033018 | -17 | 120 | 0.0 | 3.2 | 0.00 | 0.00 | 0.00 | 1020.2 | |
| 20260831032514 | -17 | 120 | 0.0 | 3.2 | 0.00 | 0.00 | 0.00 | 1020.2 | |
| 20260831032015 | -17 | 114 | 0.0 | 4.8 | 0.00 | 0.00 | 0.00 | 1020.2 | |
| 20260831031513 | -17 | 121 | 1.6 | 4.8 | 0.00 | 0.00 | 0.00 | 1020.0 | |
| 20260831031013 | -17 | 136 | 0.0 | 3.2 | 0.00 | 0.00 | 0.00 | 1020.2 | |
| 20260831030514 | -17 | 113 | 0.0 | 0.0 | 0.00 | 0.00 | 0.00 | 1020.2 | |
| 20260831030013 | -17 | 113 | 0.0 | 3.2 | 0.00 | 0.00 | 0.00 | 1020.3 | |
| 20260831025513 | -17 | 103 | 1.6 | 3.2 | 0.00 | 0.00 | 0.00 | 1020.3 | |
| 20260831025013 | -17 | 103 | 0.0 | 3.2 | 0.00 | 0.00 | 0.00 | 1020.2 | |
| 20260831024513 | -17 | 106 | 0.0 | 1.6 | 0.00 | 0.00 | 0.00 | 1020.2 | |
| 20260831024012 | -17 | 111 | 0.0 | 1.6 | 0.00 | 0.00 | 0.00 | 1020.2 | |
| 20260831023516 | -17 | 108 | 0.0 | 1.6 | 0.00 | 0.00 | 0.00 | 1020.3 | |
| 20260831023012 | -17 | 108 | 0.0 | 1.6 | 0.00 | 0.00 | 0.00 | 1020.3 | |
| 20260831022512 | -17 | 102 | 0.0 | 3.2 | 0.00 | 0.00 | 0.00 | 1020.2 | |
| 20260831022012 | -17 | 116 | 0.0 | 3.2 | 0.00 | 0.00 | 0.00 | 1020.2 | |
| 20260831021516 | -17 | 103 | 0.0 | 1.6 | 0.00 | 0.00 | 0.00 | 1020.2 | |
| 20260831021012 | -17 | 129 | 0.0 | 0.0 | 0.00 | 0.00 | 0.00 | 1020.3 | |
| 20260831020512 | -17 | 129 | 0.0 | 3.2 | 0.00 | 0.00 | 0.00 | 1020.3 | |
| 20260831020011 | -17 | 129 | 0.0 | 3.2 | 0.00 | 0.00 | 0.00 | 1020.3 | |
| 20260831015511 | -17 | 109 | 1.6 | 3.2 | 0.00 | 0.00 | 0.00 | 1020.3 | |
| 20260831015010 | -17 | 104 | 0.0 | 3.2 | 0.00 | 0.00 | 0.00 | 1020.4 | |
| 20260831014510 | -17 | 126 | 0.0 | 3.2 | 0.00 | 0.00 | 0.00 | 1020.4 | |
| 20260831014011 | -17 | 106 | 0.0 | 3.2 | 0.00 | 0.00 | 0.00 | 1020.4 | |
| 20260831013510 | -17 | 106 | 0.0 | 3.2 | 0.00 | 0.00 | 0.00 | 1020.4 | |
| 20260831013010 | -17 | 96 | 0.0 | 1.6 | 0.00 | 0.00 | 0.00 | 1020.3 | |
| 20260831012611 | -17 | 104 | 0.0 | 1.6 | 0.00 | 0.00 | 0.00 | 1020.3 |